Weather History for Istanbul, Turkey

Change the Weather History Date:

Wednesday, October 17, 2012

  Actual Average Record
Temperature  
Mean Temperature 74 °F -  
Max Temperature 82 °F 61 °F 82 °F (2012)
Min Temperature 65 °F 50 °F 42 °F (2011)
Cooling Degree Days 8    
Growing Degree Days 24 (Base 50)    
Moisture  
Dew Point 62 °F    
Average Humidity 69    
Maximum Humidity 100    
Minimum Humidity 42    
Precipitation  
Precipitation 0.00 in - - ()
Sea Level Pressure  
Sea Level Pressure 30.11 in    
Wind  
Wind Speed 5 mph ()    
Max Wind Speed 14 mph    
Max Gust Speed 20 mph    
Visibility 6.0 miles    
Events      
Averages and records for this station are not official NWS values.
T = Trace of Precipitation, MM = Missing Value Source: Averaged Metar Reports

Daily Weather History Graph

Daily Weather History Graph

Search for Another Location

Airport:

Trip Planner

Search our weather history database for the weather conditions in past years. The results will help you decide how hot, cold, wet, or windy it might be!

Date:

Astronomy

Oct. 17, 2012 Rise Set
Actual Time 7:18 AM EEST 6:20 PM EEST
Civil Twilight 6:50 AM EEST 6:48 PM EEST
Nautical Twilight 6:18 AM EEST 7:20 PM EEST
Astronomical Twilight 5:47 AM EEST 7:52 PM EEST
Moon 9:30 AM EEST (10/17) 7:37 PM EEST (10/17)
Length of Visible Light 11h 57m
Length of Day
11h 02m
Waxing Crescent, 5% of the Moon is Illuminated
Oct 17
Waxing Crescent
Oct 22
First Quarter
Oct 29
Full
Nov 7
Last Quarter
Nov 14
New

Hourly Weather History & Observations

Time (EEST) Temp. Heat Index Dew Point Humidity Pressure Visibility Wind Dir Wind Speed Gust Speed Precip Events Conditions
12:20 AM 69.8 °F - 60.8 °F 73% 30.09 in - SSE 2.3 mph - N/A   Clear
12:50 AM 71.6 °F - 60.8 °F 69% 30.06 in - ESE 3.5 mph - N/A   Clear
1:20 AM 69.8 °F - 59.0 °F 68% 30.09 in - NW 8.1 mph 19.6 mph N/A   Clear
1:50 AM 71.6 °F - 59.0 °F 64% 30.09 in - Variable 3.5 mph - N/A   Clear
2:20 AM 68.0 °F - 59.0 °F 73% 30.09 in - SW 1.2 mph - N/A   Clear
2:50 AM 69.8 °F - 62.6 °F 78% 30.09 in - Variable 2.3 mph - N/A   Clear
3:00 AM 69 °F - 62 °F 74% 30.10 in 6 mi WSW 2.3 mph - -  
3:20 AM 68.0 °F - 66.2 °F 94% 30.06 in - SW 2.3 mph - N/A   Clear
3:50 AM 68.0 °F - 66.2 °F 94% 30.06 in - Variable 2.3 mph - N/A   Clear
4:20 AM 69.8 °F - 68.0 °F 94% 30.06 in - WSW 3.5 mph - N/A   Clear
4:50 AM 66.2 °F - 66.2 °F 100% 30.06 in - Variable 1.2 mph - N/A   Clear
5:20 AM 69.8 °F - 68.0 °F 94% 30.06 in - SSW 5.8 mph - N/A   Clear
5:50 AM 69.8 °F - 68.0 °F 94% 30.06 in - SSW 5.8 mph - N/A   Clear
6:20 AM 69.8 °F - 68.0 °F 94% 30.06 in - SSW 5.8 mph - N/A   Clear
6:50 AM 68.0 °F - 66.2 °F 94% 30.06 in - WSW 4.6 mph - N/A   Clear
7:20 AM 69.8 °F - 68.0 °F 94% 30.06 in - WSW 3.5 mph - N/A   Clear
7:50 AM 69.8 °F - 68.0 °F 94% 30.09 in - Variable 2.3 mph - N/A   Clear
8:20 AM 69.8 °F - 69.8 °F 100% 30.09 in - West 4.6 mph - N/A   Clear
8:50 AM 71.6 °F - 69.8 °F 94% 30.09 in - WSW 4.6 mph - N/A   Clear
9:00 AM 71 °F - 69 °F 91% 30.11 in 6 mi WSW 4.6 mph - -  
9:20 AM 71.6 °F - 71.6 °F 100% 30.09 in - WSW 8.1 mph - N/A   Clear
9:50 AM 75.2 °F - 66.2 °F 73% 30.12 in - WSW 5.8 mph - N/A   Clear
10:20 AM 75.2 °F - 66.2 °F 73% 30.12 in - WSW 5.8 mph - N/A   Clear
10:50 AM 75.2 °F - 66.2 °F 73% 30.12 in - SW 4.6 mph - N/A   Clear
11:20 AM 75.2 °F - 64.4 °F 69% 30.12 in - WSW 4.6 mph - N/A   Clear
11:50 AM 77.0 °F - 64.4 °F 65% 30.15 in - SSW 5.8 mph - N/A   Clear
12:20 PM 77.0 °F - 62.6 °F 61% 30.15 in - SW 8.1 mph - N/A   Clear
12:50 PM 77.0 °F - 62.6 °F 61% 30.12 in - SW 8.1 mph - N/A   Clear
1:20 PM 77.0 °F - 64.4 °F 65% 30.12 in - SW 8.1 mph - N/A   Clear
1:50 PM 77.0 °F - 64.4 °F 65% 30.12 in - SSW 8.1 mph - N/A   Clear
2:20 PM 77.0 °F - 64.4 °F 65% 30.12 in - SSW 6.9 mph - N/A   Clear
2:50 PM 78.8 °F - 62.6 °F 57% 30.12 in - South 4.6 mph - N/A   Clear
3:00 PM 79 °F - 62 °F 45% 30.14 in 6 mi South 5.8 mph - -  
3:20 PM 78.8 °F - 60.8 °F 54% 30.12 in - SE 4.6 mph - N/A   Clear
3:50 PM 80.6 °F 81.8 °F 62.6 °F 54% 30.12 in - SE 8.1 mph - N/A   Clear
4:20 PM 78.8 °F - 53.6 °F 42% 30.12 in - NE 11.5 mph - N/A   Clear
4:50 PM 78.8 °F - 57.2 °F 47% 30.12 in - NE 12.7 mph - N/A   Clear
5:20 PM 77.0 °F - 55.4 °F 47% 30.12 in - NE 12.7 mph - N/A   Clear
5:50 PM 75.2 °F - 53.6 °F 47% 30.12 in - NE 13.8 mph - N/A   Clear
6:20 PM 75.2 °F - 53.6 °F 47% 30.12 in - NNE 11.5 mph - N/A   Clear
6:50 PM 73.4 °F - 51.8 °F 47% 30.12 in - NNE 12.7 mph - N/A   Clear
7:20 PM 73.4 °F - 53.6 °F 50% 30.12 in - NNE 11.5 mph - N/A   Clear
7:50 PM 73.4 °F - 53.6 °F 50% 30.12 in - NE 10.4 mph - N/A   Clear
8:20 PM 73.4 °F - 55.4 °F 53% 30.15 in - NNE 11.5 mph - N/A   Clear
8:50 PM 73.4 °F - 57.2 °F 57% 30.15 in - NNE 9.2 mph - N/A   Clear
9:00 PM 73 °F - 56 °F 46% 30.16 in 6 mi NNE 9.2 mph - -  
9:20 PM 71.6 °F - 57.2 °F 60% 30.15 in - NNE 9.2 mph - N/A   Clear
9:50 PM 71.6 °F - 59.0 °F 64% 30.15 in - NNE 10.4 mph - N/A   Clear
10:20 PM 71.6 °F - 59.0 °F 64% 30.15 in - NE 10.4 mph - N/A   Clear
10:50 PM 71.6 °F - 57.2 °F 60% 30.15 in - NNE 11.5 mph - N/A   Clear
11:20 PM 71.6 °F - 55.4 °F 57% 30.15 in - NE 11.5 mph - N/A   Clear
11:50 PM 71.6 °F - 55.4 °F 57% 30.18 in - NE 10.4 mph - N/A   Clear